Webb City, MO

6:50 AM CST on February 10, 2016 (GMT -0600)
Joplin Regional

Weather History for KJLN - May, 2012

Change the Weather History Date:

Thursday, May 24, 2012

  Actual Average Record
Temperature  
Mean Temperature 78 °F 69 °F  
Max Temperature 83 °F 80 °F 90 °F (1996)
Min Temperature 72 °F 58 °F 45 °F (2001)
Degree Days  
Heating Degree Days 0 1  
Month to date heating degree days 13 59  
Since 1 July heating degree days 3291 4062  
Cooling Degree Days 13 5  
Month to date cooling degree days 123 84  
Year to date cooling degree days 259 138  
Growing Degree Days 27 (Base 50)    
Moisture  
Dew Point 64 °F    
Average Humidity 69    
Maximum Humidity 79    
Minimum Humidity 58    
Precipitation  
Precipitation 0.00 in 0.16 in 2.48 in (2015)
Month to date precipitation 1.58 4.46  
Year to date precipitation 16.87 16.70  
Snow  
Snow 0.00 in - - ()
Month to date snowfall 0.0  
Snow Depth 0.00 in    
Sea Level Pressure  
Sea Level Pressure 29.57 in    
Wind  
Wind Speed 14 mph (South)    
Max Wind Speed 26 mph    
Max Gust Speed 33 mph    
Visibility 10 miles    
Events      
T = Trace of Precipitation, MM = Missing Value Source: NWS Daily Summary

Daily Weather History Graph

Daily Weather History Graph

Search for Another Location

Airport or City:

Trip Planner

Search our weather history database for the weather conditions in past years. The results will help you decide how hot, cold, wet, or windy it might be!

Date:

Astronomy

May. 24, 2012 Rise Set
Actual Time 6:02 AM CDT 8:27 PM CDT
Civil Twilight 5:33 AM CDT 8:57 PM CDT
Nautical Twilight 4:56 AM CDT 9:34 PM CDT
Astronomical Twilight 4:15 AM CDT 10:14 PM CDT
Moon 9:02 AM CDT (5/24) 11:29 PM CDT (5/24)
Length of Visible Light 15h 23m
Length of Day
14h 24m
Waxing Crescent, 12% of the Moon is Illuminated
May 24
Waxing Crescent
May 28
First Quarter
Jun 4
Full
Jun 11
Last Quarter
Jun 19
New

Hourly Weather History & Observations

Time (CDT) Temp. Heat Index Dew Point Humidity Pressure Visibility Wind Dir Wind Speed Gust Speed Precip Events Conditions
12:53 AM 75.0 °F - 62.1 °F 64% 29.55 in 10.0 mi SSE 10.4 mph - N/A   Clear
1:53 AM 75.0 °F - 63.0 °F 66% 29.52 in 10.0 mi SSE 15.0 mph 20.7 mph N/A   Clear
2:53 AM 75.0 °F - 63.0 °F 66% 29.50 in 10.0 mi SSE 17.3 mph 24.2 mph N/A   Clear
3:53 AM 73.9 °F - 63.0 °F 68% 29.50 in 10.0 mi SSE 13.8 mph 23.0 mph N/A   Clear
4:53 AM 73.0 °F - 62.1 °F 68% 29.51 in 10.0 mi South 12.7 mph 21.9 mph N/A   Clear
5:53 AM 72.0 °F - 62.1 °F 71% 29.49 in 10.0 mi SSE 13.8 mph 20.7 mph N/A   Clear
6:53 AM 72.0 °F - 62.1 °F 71% 29.49 in 10.0 mi South 15.0 mph 26.5 mph N/A   Clear
7:53 AM 73.9 °F - 62.1 °F 66% 29.48 in 10.0 mi SSE 21.9 mph 27.6 mph N/A   Clear
8:53 AM 77.0 °F - 63.0 °F 62% 29.52 in 10.0 mi South 19.6 mph 25.3 mph N/A   Clear
9:53 AM 79.0 °F - 63.0 °F 58% 29.53 in 10.0 mi South 19.6 mph 31.1 mph N/A   Clear
10:53 AM 80.1 °F 81.7 °F 64.0 °F 58% 29.53 in 10.0 mi South 17.3 mph 27.6 mph N/A   Clear
11:53 AM 81.0 °F 82.7 °F 64.9 °F 58% 29.55 in 10.0 mi South 23.0 mph 31.1 mph N/A   Scattered Clouds
12:53 PM 80.1 °F 81.9 °F 64.9 °F 60% 29.57 in 10.0 mi SSW 15.0 mph 26.5 mph N/A   Overcast
1:53 PM 80.1 °F 82.1 °F 66.0 °F 62% 29.58 in 10.0 mi SSW 16.1 mph 21.9 mph N/A   Overcast
2:53 PM 82.0 °F 84.1 °F 66.0 °F 58% 29.58 in 10.0 mi South 20.7 mph 25.3 mph N/A   Overcast
3:53 PM 81.0 °F 83.0 °F 66.0 °F 60% 29.58 in 10.0 mi South 18.4 mph 27.6 mph N/A   Overcast
4:53 PM 82.0 °F 84.5 °F 66.9 °F 60% 29.59 in 10.0 mi South 15.0 mph 23.0 mph N/A   Overcast
5:53 PM 82.0 °F 84.1 °F 66.0 °F 58% 29.60 in 10.0 mi South 17.3 mph - N/A   Mostly Cloudy
6:53 PM 81.0 °F 83.0 °F 66.0 °F 60% 29.61 in 10.0 mi South 13.8 mph - N/A   Overcast
7:53 PM 79.0 °F - 66.0 °F 64% 29.63 in 10.0 mi South 10.4 mph 19.6 mph N/A   Mostly Cloudy
8:53 PM 75.9 °F - 66.0 °F 71% 29.63 in 10.0 mi South 8.1 mph - N/A   Partly Cloudy
9:53 PM 73.9 °F - 66.0 °F 76% 29.68 in 10.0 mi SSE 5.8 mph - N/A   Clear
10:53 PM 73.9 °F - 66.9 °F 79% 29.70 in 10.0 mi SSE 5.8 mph - N/A   Mostly Cloudy
11:53 PM 73.0 °F - 66.9 °F 81% 29.73 in 10.0 mi SSE 6.9 mph - N/A   Clear